Regional Weather Roundup
Issued by NWS

Home | Current Version | Previous Version | Graphics & Text | Print | Product List | Glossary On
Versions: 1 2 3 4 5 6 7 8 9 10 11 12 13 14 15 16 17 18 19 20 21 22 23 24 25 26 27 28 29 30 31 32 33 34 35 36 37 38 39 40 41 42 43 44 45 46 47 48 49 50
000
ASUS43 KDMX 010603
RWRIA

WEATHER ROUNDUP FOR IOWA
NATIONAL WEATHER SERVICE DES MOINES IA
100 AM CDT SAT OCT 01 2016

NOTE: "FAIR" INDICATES FEW OR NO CLOUDS BELOW 12,000 FEET WITH NO
SIGNIFICANT WEATHER AND/OR OBSTRUCTIONS TO VISIBILITY.

* - THESE STATIONS ARE NOT NWS STATIONS...THUS NOT UNDER NWS
QUALITY CONTROL.  THEY ALSO DO NOT REPORT WEATHER SUCH
AS PRECIPITATION OR FOG.

IAZ001>003-012>014-020>022-031>034-043>046-010700-
   NORTHWEST IOWA

CITY           SKY/WX    TMP DP  RH WIND       PRES   REMARKS
CARROLL *      CLOUDY    59  57  94 CALM      30.15F
CHEROKEE *     CLOUDY    57  56  97 CALM      30.17F
DENISON *      CLOUDY    55  54  94 CALM      30.14F
LE MARS *      CLOUDY    54  50  87 CALM      30.18S
SHELDON *      CLOUDY    50  50 100 CALM      30.16F
SIOUX CITY     CLOUDY    54  52  93 CALM      30.17S
6HR MIN TEMP:  50; 6HR MAX TEMP:  69; 6HR PCP: TRACE;

SPENCER        CLOUDY    54  54 100 CALM      30.18S
6HR MIN TEMP:  54; 6HR MAX TEMP:  67;

STORM LAKE *   CLOUDY    59  55  88 E6        30.17F
$$

IAZ055>058-069>071-079>083-090>094-010700-
   SOUTHWEST IOWA

CITY           SKY/WX    TMP DP  RH WIND       PRES   REMARKS
ATLANTIC *     CLOUDY    57  55  94 CALM      30.15F
AUDUBON *      CLEAR     52  48  87 CALM      30.17S
CLARINDA *       N/A     57  55  94 MISG      30.16S FOG
COUNCIL BLFS * CLOUDY    55  54  94 CALM      30.16F
CRESTON *      CLOUDY    59  55  88 CALM      30.15F
HARLAN  *      CLOUDY    55  55 100 CALM      30.18F
LAMONI         CLOUDY    60  57  89 N3        30.13F
6HR MIN TEMP:  59; 6HR MAX TEMP:  61;

RED OAK *      CLOUDY    55  54  94 CALM      30.16S FOG
SHENANDOAH *   MOCLDY    52  50  93 CALM      30.16S
$$

IAZ047>049-059>061-072>074-084-010700-
   CENTRAL IOWA

CITY           SKY/WX    TMP DP  RH WIND       PRES   REMARKS
AMES           CLOUDY    59  59 100 N3        30.14F
6HR MIN TEMP:  59; 6HR MAX TEMP:  63;

ANKENY *         N/A    N/A N/A N/A MISG        N/A
BOONE *        CLOUDY    57  57 100 N3        30.14F FOG
CHARITON *       N/A     59  57  94 NW3       30.13S
DES MOINES     DRIZZLE   60  58  92 NE8       30.14S FOG
6HR MIN TEMP:  60; 6HR MAX TEMP:  64; 6HR PCP: TRACE;

GRINNELL*      CLOUDY    58  56  92 N3        30.13F
KNOXVILLE *    CLOUDY    59  57  94 N5        30.11F FOG
MARSHALLTOWN   CLOUDY    59  58  96 NE6       30.13F
6HR MIN TEMP:  58; 6HR MAX TEMP:  62;

NEWTON *       CLOUDY    59  57  94 N5        30.12F
PELLA *        CLOUDY    59  57  92 CALM      30.13F
PERRY *        MOCLDY    58  57  96 NE3       30.15F
$$

IAZ004>006-015-016-023>025-035-036-010700-
   NORTH CENTRAL IOWA

CITY           SKY/WX    TMP DP  RH WIND       PRES   REMARKS
ALGONA *       CLOUDY    61  55  82 CALM      30.17F
CLARION *      CLOUDY    59  57  94 CALM      30.16F
ESTHERVILLE    CLOUDY    60  56  86 CALM      30.17F
6HR MIN TEMP:  59; 6HR MAX TEMP:  66;

FORT DODGE *   CLOUDY    59  54  82 CALM      30.17F
MASON CITY     CLOUDY    60  54  80 NE5       30.17F
6HR MIN TEMP:  60; 6HR MAX TEMP:  63;

FOREST CITY *  CLOUDY    59  54  82 NE3       30.17F
WEBSTER CITY * CLOUDY    59  57  94 N3        30.14F
IOWA FALLS *   CLOUDY    60  56  88 N3        30.16F
$$

IAZ007>011-017>019-026>030-037>042-050>054-066-010700-
   NORTHEAST IOWA

CITY           SKY/WX    TMP DP  RH WIND       PRES   REMARKS
CEDAR RAPIDS   CLOUDY    60  59  96 N6        30.10F
6HR MIN TEMP:  60; 6HR MAX TEMP:  62;

CHARLES CITY * CLOUDY    59  57  94 CALM      30.16F
CLINTON *      CLOUDY    60  58  92 N10       30.09S
DECORAH *      CLOUDY    57  57 100 NE3       30.14S
DUBUQUE        CLOUDY    58  58 100 NE8       30.11F FOG
6HR MIN TEMP:  58; 6HR MAX TEMP:  59;

MONTICELLO *   CLOUDY    59  57  94 N6        30.11R
OELWEIN *      CLOUDY    59  57  94 NE5       30.13F
WATERLOO       CLOUDY    58  56  93 NW5       30.13F
6HR MIN TEMP:  56; 6HR MAX TEMP:  61;

$$

IAZ064-065-067-068-078-010700-
   EAST CENTRAL IOWA

CITY           SKY/WX    TMP DP  RH WIND       PRES   REMARKS
DAVENPORT      CLOUDY    60  57  89 N9        30.08F
6HR MIN TEMP:  60; 6HR MAX TEMP:  60; 6HR PCP: TRACE;

IOWA CITY      CLOUDY    61  57  87 N9        30.11F
6HR MIN TEMP:  61; 6HR MAX TEMP:  62;

MUSCATINE *    CLOUDY    61  57  88 N6        30.09S
QUAD CITIES    CLOUDY    62  58  86 N6        30.07F
6HR MIN TEMP:  62; 6HR MAX TEMP:  63; 6HR PCP:  0.01;

$$

IAZ062-063-075>077-085>089-095>099-010700-
   SOUTHEAST IOWA

CITY           SKY/WX    TMP DP  RH WIND       PRES   REMARKS
BURLINGTON     CLOUDY    59  59 100 N6        30.07F
6HR MIN TEMP:  59; 6HR MAX TEMP:  63; 6HR PCP: TRACE;

FAIRFIELD *    CLOUDY    61  57  88 N6        30.09F
FORT MADISON *   N/A     61  57  88 N5        30.08F
KEOKUK *       CLOUDY    61  59  94 N6        30.07F
OSKALOOSA *    CLOUDY    59  56  91 N5        30.11F
OTTUMWA        CLOUDY    60  56  86 N7        30.10F
6HR MIN TEMP:  59; 6HR MAX TEMP:  63;

WASHINGTON *     N/A    N/A N/A N/A MISG        N/A
$$

ABBREVIATIONS USED IN REMARKS
   TC - TEMPERATURES IN CELSIUS
  WCI - WIND CHILL INDEX
   HX - HEAT INDEX
  VSB - VISIBILITY
$$





USA.gov is the U.S. government's official web portal to all federal, state and local government web resources and services.